TimeEDT,TemperatureF,Dew PointF,Humidity,Sea Level PressureIn,VisibilityMPH,Wind Direction,Wind SpeedMPH,Gust SpeedMPH,PrecipitationIn,Events,Conditions,WindDirDegrees,DateUTC
12:53 AM,73.9,69.1,85,30.11,10.0,ENE,9.2,-,N/A,,Clear,70,2013-04-17 04:53:00
1:53 AM,73.0,69.1,87,30.09,10.0,ENE,9.2,-,N/A,,Clear,60,2013-04-17 05:53:00
2:53 AM,72.0,69.1,91,30.07,9.0,NE,8.1,-,N/A,,Clear,50,2013-04-17 06:53:00
3:53 AM,72.0,69.1,91,30.07,9.0,NE,6.9,-,N/A,,Clear,50,2013-04-17 07:53:00
4:53 AM,71.1,68.0,90,30.06,9.0,NE,8.1,-,N/A,,Clear,50,2013-04-17 08:53:00
5:53 AM,71.1,68.0,90,30.06,9.0,NE,8.1,-,N/A,,Clear,50,2013-04-17 09:53:00
6:53 AM,70.0,66.9,90,30.08,9.0,NE,6.9,-,N/A,,Clear,50,2013-04-17 10:53:00
7:53 AM,72.0,68.0,87,30.09,8.0,NE,8.1,-,N/A,,Clear,50,2013-04-17 11:53:00
8:53 AM,75.0,68.0,79,30.10,9.0,ENE,12.7,-,N/A,,Clear,60,2013-04-17 12:53:00
10:53 AM,81.0,69.1,67,30.09,10.0,East,13.8,-,N/A,,Clear,80,2013-04-17 14:53:00
11:53 AM,84.0,70.0,63,30.08,10.0,ENE,13.8,-,N/A,,Partly Cloudy,60,2013-04-17 15:53:00
12:53 PM,84.9,69.1,59,30.06,10.0,NE,12.7,-,N/A,,Mostly Cloudy,50,2013-04-17 16:53:00
1:53 PM,87.1,66.9,51,30.03,10.0,East,10.4,-,N/A,,Partly Cloudy,90,2013-04-17 17:53:00
2:53 PM,86.0,66.9,53,30.02,10.0,NE,8.1,-,N/A,,Scattered Clouds,50,2013-04-17 18:53:00
3:53 PM,86.0,64.9,49,30.01,10.0,East,9.2,-,N/A,,Partly Cloudy,80,2013-04-17 19:53:00
4:53 PM,87.1,64.9,48,30.00,10.0,East,6.9,-,N/A,,Partly Cloudy,100,2013-04-17 20:53:00
5:53 PM,86.0,64.9,49,30.00,10.0,North,4.6,-,N/A,,Mostly Cloudy,10,2013-04-17 21:53:00
6:53 PM,80.1,73.9,81,30.01,7.0,SSW,13.8,-,0.04,Rain,Rain,210,2013-04-17 22:53:00
7:19 PM,77.0,71.6,83,30.03,0.8,East,11.5,23.0,0.34,Rain,Heavy Rain,100,2013-04-17 23:19:00
7:24 PM,75.2,71.6,89,30.03,0.5,Variable,4.6,23.0,0.53,Fog-Rain,Heavy Rain,0,2013-04-17 23:24:00
7:33 PM,75.2,71.6,89,30.03,0.8,South,3.5,-,0.63,Rain,Heavy Rain,190,2013-04-17 23:33:00
7:42 PM,75.2,71.6,89,30.02,1.0,WSW,4.6,-,0.71,Rain,Heavy Rain,240,2013-04-17 23:42:00
7:49 PM,75.2,71.6,89,30.03,1.8,SW,5.8,-,0.73,Rain,Rain,230,2013-04-17 23:49:00
7:51 PM,75.2,71.6,89,30.03,2.5,SW,5.8,-,0.73,Rain,Rain,230,2013-04-17 23:51:00
7:53 PM,75.0,72.0,90,30.02,3.0,SW,6.9,-,0.74,Rain,Rain,220,2013-04-17 23:53:00
8:53 PM,75.9,70.0,82,30.04,6.0,WSW,3.5,-,0.04,Rain,Light Rain,240,2013-04-18 00:53:00
9:53 PM,75.9,72.0,87,30.04,10.0,East,3.5,-,0.00,,Overcast,100,2013-04-18 01:53:00
10:53 PM,75.9,64.9,69,30.05,10.0,East,9.2,-,N/A,,Overcast,100,2013-04-18 02:53:00
11:53 PM,75.0,66.0,73,30.05,10.0,East,9.2,-,N/A,,Overcast,80,2013-04-18 03:53:00